Time,TemperatureF,DewpointF,PressureIn,WindDirection,WindDirectionDegrees,WindSpeedMPH,WindSpeedGustMPH,Humidity,HourlyPrecipIn,Conditions,Clouds,dailyrainin,SoftwareType,DateUTC
2013-08-23 00:22:00,73.0,70.0,-100.00,East,90,2.0,-999.0,89,-99.99,,,-99.99,,2013-08-23 05:22:00,
2013-08-23 00:52:00,72.0,70.0,-100.00,ESE,113,2.0,-999.0,91,-99.99,,,-99.99,,2013-08-23 05:52:00,
2013-08-23 01:22:00,73.0,70.0,-100.00,ESE,113,1.0,-999.0,91,-99.99,,,-99.99,,2013-08-23 06:22:00,
2013-08-23 01:52:00,72.0,70.0,-100.00,ESE,113,2.0,-999.0,92,-99.99,,,-99.99,,2013-08-23 06:52:00,
2013-08-23 02:12:00,72.0,70.0,-100.00,ESE,113,1.0,-999.0,92,-99.99,,,-99.99,,2013-08-23 07:12:00,
2013-08-23 02:22:00,72.0,70.0,-100.00,ESE,113,1.0,-999.0,92,-99.99,,,-99.99,,2013-08-23 07:22:00,
2013-08-23 02:52:00,72.0,70.0,-100.00,ESE,113,1.0,-999.0,93,-99.99,,,-99.99,,2013-08-23 07:52:00,
2013-08-23 03:22:00,72.0,70.0,-100.00,SE,135,1.0,-999.0,94,-99.99,,,-99.99,,2013-08-23 08:22:00,
2013-08-23 03:52:00,72.0,70.0,-100.00,SE,135,1.0,-999.0,94,-99.99,,,-99.99,,2013-08-23 08:52:00,
2013-08-23 04:21:00,72.0,70.0,-100.00,SE,135,1.0,-999.0,94,-99.99,,,-99.99,,2013-08-23 09:21:00,
2013-08-23 04:53:00,72.0,70.0,-100.00,SE,135,1.0,-999.0,94,-99.99,,,-99.99,,2013-08-23 09:53:00,
2013-08-23 05:22:00,72.0,70.0,-100.00,ESE,113,1.0,-999.0,93,-99.99,,,-99.99,,2013-08-23 10:22:00,
2013-08-23 05:53:00,72.0,70.0,-100.00,SE,135,1.0,-999.0,93,-99.99,,,-99.99,,2013-08-23 10:53:00,
2013-08-23 06:22:00,72.0,69.0,-100.00,SE,135,1.0,-999.0,93,-99.99,,,-99.99,,2013-08-23 11:22:00,
2013-08-23 06:53:00,71.0,69.0,-100.00,SE,135,1.0,-999.0,93,-99.99,,,-99.99,,2013-08-23 11:53:00,
2013-08-23 07:22:00,72.0,69.0,-100.00,South,180,1.0,-999.0,92,-99.99,,,-99.99,,2013-08-23 12:22:00,
2013-08-23 07:52:00,72.0,69.0,-100.00,SSW,203,1.0,-999.0,89,-99.99,,,-99.99,,2013-08-23 12:52:00,
2013-08-23 08:22:00,74.0,69.0,-100.00,South,180,2.0,-999.0,86,-99.99,,,-99.99,,2013-08-23 13:22:00,
2013-08-23 08:52:00,74.0,71.0,-100.00,SSW,203,2.0,-999.0,88,-99.99,,,-99.99,,2013-08-23 13:52:00,
2013-08-23 09:21:00,76.0,71.0,-100.00,South,180,1.0,-999.0,85,-99.99,,,-99.99,,2013-08-23 14:21:00,
2013-08-23 09:52:00,77.0,70.0,-100.00,South,180,2.0,-999.0,79,-99.99,,,-99.99,,2013-08-23 14:52:00,
2013-08-23 10:22:00,78.0,70.0,-100.00,South,180,3.0,-999.0,78,-99.99,,,-99.99,,2013-08-23 15:22:00,
2013-08-23 10:54:00,77.0,71.0,-100.00,SSE,158,2.0,-999.0,80,-99.99,,,-99.99,,2013-08-23 15:54:00,
2013-08-23 11:24:00,81.0,72.0,-100.00,SE,135,2.0,-999.0,75,-99.99,,,-99.99,,2013-08-23 16:24:00,
2013-08-23 11:53:00,84.0,73.0,-100.00,SE,135,3.0,-999.0,69,-99.99,,,-99.99,,2013-08-23 16:53:00,
2013-08-23 12:23:00,85.0,73.0,-100.00,SSE,158,2.0,-999.0,65,-99.99,,,-99.99,,2013-08-23 17:23:00,
2013-08-23 12:53:00,86.0,71.0,-100.00,South,180,3.0,-999.0,59,-99.99,,,-99.99,,2013-08-23 17:53:00,
2013-08-23 13:22:00,87.0,71.0,-100.00,SSE,158,4.0,-999.0,58,-99.99,,,-99.99,,2013-08-23 18:22:00,
2013-08-23 13:52:00,86.0,72.0,-100.00,SSE,158,3.0,-999.0,62,-99.99,,,-99.99,,2013-08-23 18:52:00,
2013-08-23 14:22:00,86.0,72.0,-100.00,SSE,158,2.0,-999.0,62,-99.99,,,-99.99,,2013-08-23 19:22:00,
2013-08-23 14:52:00,87.0,70.0,-100.00,SSE,158,3.0,-999.0,57,-99.99,,,-99.99,,2013-08-23 19:52:00,
2013-08-23 15:22:00,88.0,71.0,-100.00,SSE,158,3.0,-999.0,57,-99.99,,,-99.99,,2013-08-23 20:22:00,
2013-08-23 15:52:00,89.0,68.0,-100.00,SSE,158,4.0,-999.0,51,-99.99,,,-99.99,,2013-08-23 20:52:00,
2013-08-23 16:22:00,89.0,68.0,-100.00,SSE,158,4.0,-999.0,50,-99.99,,,-99.99,,2013-08-23 21:22:00,
2013-08-23 16:54:00,88.0,68.0,-100.00,South,180,4.0,-999.0,52,-99.99,,,-99.99,,2013-08-23 21:54:00,
2013-08-23 17:24:00,89.0,70.0,-100.00,SSE,158,3.0,-999.0,54,-99.99,,,-99.99,,2013-08-23 22:24:00,
2013-08-23 17:53:00,88.0,69.0,-100.00,SSE,158,4.0,-999.0,52,-99.99,,,-99.99,,2013-08-23 22:53:00,
2013-08-23 18:22:00,86.0,70.0,-100.00,SSE,158,4.0,-999.0,58,-99.99,,,-99.99,,2013-08-23 23:22:00,
2013-08-23 18:54:00,87.0,70.0,-100.00,SSE,158,3.0,-999.0,58,-99.99,,,-99.99,,2013-08-23 23:54:00,
2013-08-23 19:21:00,84.0,72.0,-100.00,SSE,158,2.0,-999.0,67,-99.99,,,-99.99,,2013-08-24 00:21:00,
2013-08-23 19:53:00,83.0,72.0,-100.00,SSE,158,2.0,-999.0,69,-99.99,,,-99.99,,2013-08-24 00:53:00,
2013-08-23 20:22:00,82.0,71.0,-100.00,SSE,158,2.0,-999.0,70,-99.99,,,-99.99,,2013-08-24 01:22:00,
2013-08-23 20:53:00,80.0,72.0,-100.00,SE,135,2.0,-999.0,75,-99.99,,,-99.99,,2013-08-24 01:53:00,
2013-08-23 21:22:00,79.0,72.0,-100.00,SSE,158,2.0,-999.0,78,-99.99,,,-99.99,,2013-08-24 02:22:00,
2013-08-23 21:52:00,79.0,72.0,-100.00,SE,135,3.0,-999.0,78,-99.99,,,-99.99,,2013-08-24 02:52:00,
2013-08-23 22:22:00,79.0,71.0,-100.00,SE,135,3.0,-999.0,77,-99.99,,,-99.99,,2013-08-24 03:22:00,
2013-08-23 22:55:00,79.0,71.0,-100.00,SSE,158,3.0,-999.0,77,-99.99,,,-99.99,,2013-08-24 03:55:00,
2013-08-23 23:24:00,79.0,71.0,-100.00,South,180,4.0,-999.0,77,-99.99,,,-99.99,,2013-08-24 04:24:00,
2013-08-23 23:53:00,79.0,71.0,-100.00,South,180,3.0,-999.0,76,-99.99,,,-99.99,,2013-08-24 04:53:00,